Orbital Elements at Epoch 2459000.5 (2020-May-31.0) TDB
Reference: JPL 29 (heliocentric ecliptic J2000)
Element | Value | Uncertainty (1-sigma) | Units |
e | .2086717922639338 | 4.3168e-08 | |
a | 2.374115676835409 | 6.7104e-09 | au |
q | 1.878704703508262 | 1.0086e-07 | au |
i | 4.758149479027931 | 4.1705e-06 | deg |
node | 347.0631568544873 | 4.3804e-05 | deg |
peri | 25.55726568430041 | 4.463e-05 | deg |
M | 104.8818424775213 | 9.2209e-06 | deg |
tp | 2458611.231691589319 (2019-May-07.73169159) | 3.3564e-05 | TDB |
period | 1336.137769107933 3.66 | 5.6649e-06 1.551e-08 | d yr |
n | .2694332937241588 | 1.1423e-09 | deg/d |
Q | 2.869526650162556 | 8.1107e-09 | au |
|
| | Orbit Determination Parameters
Additional Information
|